Volver al catálogo

CBERS 1 DEB

LostSSO
NORAD 32067·DEBRIS·🇧🇷 Brazil🇨🇳 China

Lanzado Oct 14, 1999 desde Taiyuan Satellite Launch Center

Loading…

Próximos Pases (próximas 24 horas)

TLE

ObsoletoSource: Space-Track

Época: Jun 3, 2014, 03:05 UTC

1 32067U 99057QF  14154.12860017  .00000137  00000-0  53917-4 0  9998
2 32067  98.1628 113.6504 0034846 358.7697  63.5312 14.42165538361474

Sigue CBERS 1 DEB en tiempo real con AllMySat

Download on the App Store